STARLINK-30212 (57506 NORAD) Tracking and Keplerian Element Data

This shows tracking and keplerian element data for the satellite.

Feedback or suggestion? Click here.




ElementValue
Catalog57506
NameSTARLINK-30212
Epoch Orbit422
Epoch Day239.16667824
Epoch Year2023
RAAN10.7235
Inclination43.0006
Eccentricity0.0001612
Argument of Perigee243.0502
Mean Anonmoly223.2876
Mean Motion15.50262029
Decay Rate-0.01506722
L11 57506U 23113M 23239.16667824 -.01506722 00000+0 -28692-1 0 9994
L22 57506 43.0006 10.7235 0001612 243.0502 223.2876 15.50262029 4222



Live tracking and technical data element details for STARLINK-30212 (NORAD 57506). STARLINK-30212 can be tracked NOW for your location showing map with azimuth and elevation plus other details from your city location.







IsCatalogInMostPopularTable: catalog: 57506, numindb: 13
Update: records affected: 1



GetName: 57506 STARLINK-30212

Hit Count: updated at: Tue, 26 Sep 2023 12:10:41 GMT